Location: Flotzheim
(48.8375°N, 10.8136°E)
Time: 04:27:42
(UTC+00:00)

MOS 1 Rocket - Pass Details

Date: 23 January 2021
Orbit: 614 x 830 km, 97.4° (Epoch: 26 February)

Event Time Altitude Azimuth Distance (km) Brightness Sun altitude
Exits shadow 17:49:50 - 11° (N) 2,750 6.2 -17.8°
Reaches altitude 10° 17:51:38 10° 10° (N) 1,998 5.5 -18.1°
Maximum altitude 17:55:56 78° 286° (WNW) 635 3.1 -18.8°
Drops below altitude 10° 18:00:13 10° 200° (SSW) 1,977 6.0 -19.5°
Sets 18:02:23 0° 198° (SSW) 2,889 6.8 -19.8°
